This is the latest recevied weather packets stored in our database for station/object YO8CLN-10. If no packets are shown the sender has not sent any weather packets the latest 10 day(s).
| Time | Temp. | Humidity | Pressure | Rain* | Wind** | Luminosity | Snow |
|---|---|---|---|---|---|---|---|
| 1777955382 | 5° C | 77% | 1111 hPa | 0 mm | - | - | - |
| 1777954782 | 4.44° C | 80% | 1111 hPa | 0 mm | - | - | - |
| 1777954244 | 3.33° C | 82% | 1111 hPa | 0 mm | - | - | - |
| 1777954181 | 2.78° C | 82% | 1111 hPa | 0 mm | - | - | - |
| 1777953581 | 1.11° C | 83% | 1111 hPa | 0 mm | - | - | - |
| 1777952980 | -1.11° C | 79% | 1111 hPa | 0 mm | - | - | - |
| 1777952380 | -1.67° C | 76% | 1111 hPa | 0 mm | - | - | - |
| 1777951779 | -1.67° C | 76% | 1111 hPa | 0 mm | - | - | - |
| 1777951178 | -1.67° C | 76% | 1111 hPa | 0 mm | - | - | - |
| 1777950578 | -1.67° C | 76% | 1111 hPa | 0 mm | - | - | - |
| 1777949977 | -1.67° C | 76% | 1111 hPa | 0 mm | - | - | - |
| 1777949377 | -1.11° C | 76% | 1111 hPa | 0 mm | - | - | - |
| 1777948776 | -1.11° C | 76% | 1111 hPa | 0 mm | - | - | - |
| 1777948175 | -1.11° C | 75% | 1111 hPa | 0 mm | - | - | - |
| 1777947575 | -1.11° C | 75% | 1111 hPa | 0 mm | - | - | - |
| 1777946974 | -1.11° C | 75% | 1111 hPa | 0 mm | - | - | - |
| 1777946374 | -0.56° C | 74% | 1111 hPa | 0 mm | - | - | - |
| 1777945773 | -0.56° C | 75% | 1111 hPa | 0 mm | - | - | - |
| 1777945173 | -0.56° C | 74% | 1111 hPa | 0 mm | - | - | - |
| 1777944572 | -0.56° C | 74% | 1111 hPa | 0 mm | - | - | - |
| 1777943972 | 0° C | 74% | 1111 hPa | 0 mm | - | - | - |
| 1777943371 | 0° C | 74% | 1111 hPa | 0 mm | - | - | - |
| 1777942770 | 0° C | 73% | 1111 hPa | 0 mm | - | - | - |
| 1777942170 | 0° C | 73% | 1111 hPa | 0 mm | - | - | - |
| 1777941569 | 0° C | 73% | 1111 hPa | 0 mm | - | - | - |
* Rain latest hour (hover to see other rain measurements)
** Current wind speed in m/s (hover to see current wind gust speed)